PulseSat

PulseSat

GSAT0213 (PRN E04)

Last updated on Jan. 16, 2019, 2:58 a.m. UTC

1 41861U 16069C   19015.53464951  .00000086  00000-0  00000+0 0  9998
2 41861  54.5933 176.2677 0001536 258.1522 101.8119  1.70473651 13466
UTC
Height (km)
Latitude
Longitude
Inclination
Orbital Period

Next 30 passes for location: Hong Kong

Rise time Rise Azimuth (degrees) Set time Set Azimuth (degrees) Duration Max altitude (degrees)

No matching passes for this satellites

PulseSat

PulseSat is the new satellites software and hardware trackering solution by Pulsely.
Satellite Two Line Element Set source: US Air Force Space Command

Download PulseSat for iOS
© 2017 Pulsely Limited